Regional Weather Roundup
Issued by NWS Mobile, AL

Home | Current Version | Previous Version | Text Only | Print | Product List | Glossary On
Versions: 1 2 3 4 5 6 7 8 9 10 11 12 13 14 15 16 17 18 19 20 21 22 23 24 25 26 27
000
ASUS44 KMOB 172312
RWRMOB
REGIONAL WEATHER ROUNDUP
NATIONAL WEATHER SERVICE MOBILE AL
500 PM CST SUN DEC 17 2017

NOTE: "FAIR" INDICATES FEW OR NO CLOUDS BELOW 12,000 FEET WITH NO
      SIGNIFICANT WEATHER AND/OR OBSTRUCTIONS TO VISIBILITY.

  * THESE STATIONS ARE PART OF THE UNIVERSITY OF SOUTH ALABAMA
    MESONET AND ARE NOT UNDER NWS OR FAA QUALITY CONTROL.

ALZ061>064-180000-
COASTAL ALABAMA

CITY           SKY/WX    TMP DP  RH WIND       PRES   REMARKS
MOBILE REG APT HVY RAIN  68  67  96 SE7       30.12R FOG
BROOKLEY FIELD RAIN      65  65 100 W5        30.16R VSB 3/4
USA CAMPUS*    NOT AVBL
DOG RIVER*     NOT AVBL


CITY           SKY/WX    TMP DP  RH WIND       PRES   REMARKS
GULF SHORES    DRIZZLE   66  66 100 N8        30.12S

$$

ALZ051>060-180000-
INTERIOR SOUTHWEST AND SOUTH CENTRAL ALABAMA

CITY           SKY/WX    TMP DP  RH WIND       PRES   REMARKS
GREENVILLE     LGT RAIN  59  56  89 S6        30.11F FOG
EVERGREEN      CLOUDY    64  63  96 S7        30.13F
ATMORE*          N/A    N/A N/A N/A CALM        N/A
ANDALUSIA/OPP  LGT RAIN  68  65  90 CALM      30.16R FOG
ANDALUSIA*       N/A     66  64  94 CALM      30.15R
FLORALA APT    LGT RAIN  66  64  93 S3        30.17R FOG
FLORALA*         N/A     66  64  94 CALM      30.88R

$$

FLZ001>006-180000-
WESTERN FLORIDA PANHANDLE

CITY           SKY/WX    TMP DP  RH WIND       PRES   REMARKS
PENSACOLA      LGT RAIN  67  66  97 N3        30.13R FOG
NAS PENSACOLA  LGT RAIN  69  67  93 NW5       30.12R
MILTON         RAIN      66  66 100 CALM      30.14R FOG
WHTNG S FIELD  LGT RAIN  71  68  90 E3        30.13S FOG


CITY           SKY/WX    TMP DP  RH WIND       PRES   REMARKS
JAY*             N/A     66  66 100 SE3       30.14S
DUKE FIELD     RAIN      68  66  94 SE6       30.14S
CRESTVIEW      LGT RAIN  67  65  93 E3        30.16R FOG
VALPARAISO     LGT RAIN  64  64 100 E7        30.13R FOG
DESTIN         CLOUDY    68  64  87 SE10      30.13S FOG

$$

MSZ076-079-180000-
INTERIOR SOUTHEAST MISSISSIPPI

CITY           SKY/WX    TMP DP  RH WIND       PRES   REMARKS
LEAKESVILLE*     N/A     66  66 100 S3        30.12R
AGRICOLA*        N/A     64  64 100 CALM      30.11R

$$

MARINE OBSERVATIONS

STATION/POSITION TIME  TEMP    WIND        PRES    WAVE
                       AIR SEA DIR/SP/G            HT/PER
                 (UTC) (F)     (DEG/KT/KT) (MB)    (FT/S)
PASCAGOULA       2248          140/  2/  2 1019.7R
PETIT BOIS ISLND 2248          330/  4/  5 1020.5R
KATRINA CUT      2230   62     280/  9     1020.0R
CEDAR POINT      2230   62     280/  5     1019.6R
E DAUPHIN ISLAND 2200   67     250/  2/  4 1019.1S
MIDDLE BAY LIGHT 2230   63     120/  5     1019.3S
USCG MOBILE BAY  2236      56   90/  2/  3 1019.6R
STATE DOCKS      2236      56              1019.5R
MEAHER PARK      2230   67      70/  2     1019.0F
WEEKS BAY        2145   67                 1019.0S
FORT MORGAN      2248          300/  9/ 10   N/A
12 S ORANGE BCH  NOT AVBL
PENSACOLA BAY    2236      55              1020.2R
64 S DAUPHIN ISL 2250   76 75  170/ 16/ 19 1018.7F   5/ 7
67 S FORT MORGAN 2230   74                 1019.3S

$$

SELECTED LOCATIONS ACROSS THE REGION

CITY           SKY/WX    TMP DP  RH WIND       PRES   REMARKS
NEW ORLEANS    CLOUDY    68  68 100 S5        30.09F
GULFPORT       LGT RAIN  66  66 100 SE3       30.10F FOG
PASCAGOULA AP  RAIN      67  65  93 SE6       30.11F VSB 1
PASCAGOULA*      N/A    N/A N/A N/A CALM        N/A
HATTIESBURG    CLOUDY    61  61 100 N3        30.08S
LAUREL         LGT RAIN  58  58 100 N5        30.10R VSB 1/4
MERIDIAN       FOG       52  52 100 NE3       30.11S VSB 1/4
JACKSON        CLOUDY    60  58  92 SE3       30.09R FOG
MONTGOMERY     CLOUDY    50  46  86 SE8       30.11F
TROY           LGT RAIN  63  63 100 S6        30.15S FOG
ASHFORD*         N/A     66  64  94 CALM      30.15R
DOTHAN         CLOUDY    69  64  84 S9        30.20R
PANAMA CITY    CLOUDY    68  64  87 SE7       30.16R

$$





USA.gov is the U.S. government's official web portal to all federal, state and local government web resources and services.